FW0394 Weather Reports


Display with metric or nautical units.
time (UTC)temp
F
wind
direction
speed
MPH
gust
MPH
rain 1hr
in
rain 24hr
in
rain mn
in
humidity
%
barometer
mb
20260510191003 72 268 3.0 10.0 0.00 0.00 0.00 35 1020.6
20260510190713 71 299 3.0 10.0 0.00 0.00 0.00 31 1020.6
20260510190003 70 14 3.0 5.0 0.00 0.00 0.00 30 1020.7
20260510185713 71 340 2.0 5.0 0.00 0.00 0.00 31 1020.8
20260510185003 71 237 4.0 11.0 0.00 0.00 0.00 36 1020.9
20260510184503 70 217 4.0 11.0 0.00 0.00 0.00 32 1020.9
20260510184003 70 265 3.0 9.0 0.00 0.00 0.00 30 1021.0
20260510183503 70 302 2.0 7.0 0.00 0.00 0.00 32 1021.0
20260510183003 70 274 1.0 6.0 0.00 0.00 0.00 36 1021.0
20260510182504 70 281 1.0 7.0 0.00 0.00 0.00 32 1021.0
20260510182003 70 269 2.0 7.0 0.00 0.00 0.00 35 1021.1
20260510181503 69 255 3.0 7.0 0.00 0.00 0.00 33 1021.1
20260510181216 69 253 3.0 8.0 0.00 0.00 0.00 34 1021.2
20260510180503 69 240 4.0 9.0 0.00 0.00 0.00 31 1021.4
20260510180003 69 244 4.0 9.0 0.00 0.00 0.00 30 1021.5
20260510175713 69 255 4.0 9.0 0.00 0.00 0.00 34 1021.4
20260510175003 68 287 3.0 7.0 0.00 0.00 0.00 37 1021.5
20260510174503 68 268 3.0 7.0 0.00 0.00 0.00 35 1021.5
20260510174003 68 279 3.0 10.0 0.00 0.00 0.00 37 1021.5
20260510173503 68 268 3.0 10.0 0.00 0.00 0.00 35 1021.6
20260510173003 67 259 4.0 9.0 0.00 0.00 0.00 31 1021.6
20260510172503 67 254 4.0 11.0 0.00 0.00 0.00 30 1021.6
20260510172213 68 261 3.0 11.0 0.00 0.00 0.00 31 1021.7
20260510171503 67 243 3.0 7.0 0.00 0.00 0.00 39 1021.8
20260510171005 67 255 2.0 7.0 0.00 0.00 0.00 34 1021.7
20260510170503 67 244 2.0 6.0 0.00 0.00 0.00 34 1021.8
20260510170003 66 217 3.0 8.0 0.00 0.00 0.00 37 1021.9
20260510165715 66 226 3.0 8.0 0.00 0.00 0.00 33 1022.0
20260510165003 66 255 3.0 7.0 0.00 0.00 0.00 35 1022.1
20260510164503 66 221 2.0 7.0 0.00 0.00 0.00 40 1022.1
20260510164003 65 165 2.0 8.0 0.00 0.00 0.00 35 1022.2
20260510163503 65 198 3.0 8.0 0.00 0.00 0.00 37 1022.2
20260510163213 65 227 3.0 7.0 0.00 0.00 0.00 38 1022.1
20260510162503 66 244 3.0 8.0 0.00 0.00 0.00 35 1022.1
20260510162003 65 214 2.0 5.0 0.00 0.00 0.00 37 1022.1
20260510161503 65 217 2.0 5.0 0.00 0.00 0.00 37 1021.9
20260510161004 64 212 2.0 6.0 0.00 0.00 0.00 35 1022.0
20260510160503 64 191 2.0 6.0 0.00 0.00 0.00 34 1022.0
20260510160213 64 189 2.0 6.0 0.00 0.00 0.00 38 1022.0
20260510155504 63 161 3.0 8.0 0.00 0.00 0.00 34 1022.0
20260510155003 63 157 3.0 8.0 0.00 0.00 0.00 32 1022.0
20260510154503 63 191 3.0 8.0 0.00 0.00 0.00 36 1022.1
20260510154003 63 206 3.0 6.0 0.00 0.00 0.00 39 1022.0
20260510153503 62 177 3.0 6.0 0.00 0.00 0.00 33 1022.2
20260510153003 62 165 2.0 6.0 0.00 0.00 0.00 37 1022.0
20260510152503 62 194 2.0 7.0 0.00 0.00 0.00 38 1022.1
20260510152213 61 200 3.0 7.0 0.00 0.00 0.00 38 1022.2
20260510151503 61 200 3.0 7.0 0.00 0.00 0.00 35 1022.0
20260510151003 60 184 3.0 6.0 0.00 0.00 0.00 36 1021.9
20260510150503 60 196 3.0 6.0 0.00 0.00 0.00 41 1021.9
20260510150212 60 205 3.0 6.0 0.00 0.00 0.00 37 1022.0
20260510145503 59 209 2.0 6.0 0.00 0.00 0.00 41 1022.0
20260510145003 59 217 2.0 6.0 0.00 0.00 0.00 43 1021.9
20260510144503 58 204 2.0 7.0 0.00 0.00 0.00 40 1021.9
20260510144003 58 198 3.0 7.0 0.00 0.00 0.00 42 1022.0
20260510143504 57 187 3.0 7.0 0.00 0.00 0.00 43 1021.8
20260510142503 56 163 2.0 5.0 0.00 0.00 0.00 45 1021.6
20260510142003 56 152 2.0 5.0 0.00 0.00 0.00 45 1021.6
20260510141713 55 147 2.0 5.0 0.00 0.00 0.00 44 1021.5
20260510141003 55 162 2.0 5.0 0.00 0.00 0.00 45 1021.4
20260510140503 54 170 1.0 4.0 0.00 0.00 0.00 44 1021.4
20260510140003 54 182 2.0 6.0 0.00 0.00 0.00 50 1021.3
20260510135713 54 181 2.0 6.0 0.00 0.00 0.00 46 1021.2
20260510135214 54 187 2.0 6.0 0.00 0.00 0.00 47 1021.3
20260510134503 53 253 1.0 4.0 0.00 0.00 0.00 50 1021.3
20260510134003 53 275 2.0 3.0 0.00 0.00 0.00 52 1021.3
20260510133504 52 295 1.0 3.0 0.00 0.00 0.00 54 1021.3
20260510133003 52 312 1.0 3.0 0.00 0.00 0.00 53 1021.2
20260510132503 52 313 1.0 3.0 0.00 0.00 0.00 54 1021.2
20260510132214 51 314 1.0 3.0 0.00 0.00 0.00 56 1021.1
20260510131003 50 316 0.0 2.0 0.00 0.00 0.00 61 1021.1
20260510130503 50 316 0.0 2.0 0.00 0.00 0.00 61 1021.0
20260510130003 49 316 1.0 2.0 0.00 0.00 0.00 61 1021.0
20260510125713 49 316 1.0 2.0 0.00 0.00 0.00 62 1020.9
20260510125003 48 317 0.0 2.0 0.00 0.00 0.00 64 1020.8
20260510124503 48 0 0.0 0.0 0.00 0.00 0.00 64 1020.7
20260510124003 48 0 0.0 0.0 0.00 0.00 0.00 66 1020.8
20260510123713 48 0 0.0 0.0 0.00 0.00 0.00 67 1020.8
20260510123214 47 0 0.0 0.0 0.00 0.00 0.00 65 1020.6
20260510122503 47 0 0.0 0.0 0.00 0.00 0.00 66 1020.6
20260510122003 47 0 0.0 0.0 0.00 0.00 0.00 67 1020.5
20260510121503 46 0 0.0 0.0 0.00 0.00 0.00 67 1020.5
20260510121213 46 0 0.0 0.0 0.00 0.00 0.00 67 1020.5
20260510120503 46 0 0.0 0.0 0.00 0.00 0.00 67 1020.4
20260510120004 46 0 0.0 0.0 0.00 0.00 0.00 66 1020.4
20260510115712 46 0 0.0 0.0 0.00 0.00 0.00 67 1020.3
20260510115003 46 0 0.0 0.0 0.00 0.00 0.00 67 1020.2
20260510114508 46 0 0.0 0.0 0.00 0.00 0.00 67 1020.2
20260510114003 46 0 0.0 0.0 0.00 0.00 0.00 68 1020.2
20260510113503 46 0 0.0 0.0 0.00 0.00 0.00 68 1020.2
20260510113003 46 0 0.0 0.0 0.00 0.00 0.00 68 1020.2
20260510112503 46 0 0.0 0.0 0.00 0.00 0.00 67 1020.1
20260510112003 46 0 0.0 0.0 0.00 0.00 0.00 67 1020.1
20260510111503 46 0 0.0 0.0 0.00 0.00 0.00 67 1020.1
20260510111003 46 0 0.0 0.0 0.00 0.00 0.00 66 1020.1
20260510110503 46 0 0.0 0.0 0.00 0.00 0.00 67 1020.1
20260510110005 46 0 0.0 0.0 0.00 0.00 0.00 66 1020.1
20260510105714 46 0 0.0 0.0 0.00 0.00 0.00 67 1020.1
20260510105003 46 0 0.0 0.0 0.00 0.00 0.00 65 1020.0
20260510104503 46 0 0.0 0.0 0.00 0.00 0.00 66 1019.9
20260510104003 46 0 0.0 0.0 0.00 0.00 0.00 64 1020.0
20260510103503 46 0 0.0 0.0 0.00 0.00 0.00 64 1020.0
20260510103213 46 0 0.0 0.0 0.00 0.00 0.00 64 1020.1
20260510102503 46 0 0.0 0.0 0.00 0.00 0.00 62 1019.9
20260510102003 46 0 0.0 0.0 0.00 0.00 0.00 61 1019.9
20260510101503 46 0 0.0 0.0 0.00 0.00 0.00 61 1019.7
20260510101003 46 0 0.0 0.0 0.00 0.00 0.00 60 1019.7
20260510100503 46 0 0.0 0.0 0.00 0.00 0.00 60 1019.7
20260510100004 46 0 0.0 0.0 0.00 0.00 0.00 61 1019.6
20260510095503 46 0 0.0 0.0 0.00 0.00 0.00 62 1019.5
20260510095003 46 0 0.0 0.0 0.00 0.00 0.00 63 1019.2
20260510094503 46 317 0.0 1.0 0.00 0.00 0.00 64 1019.1
20260510094003 46 317 0.0 1.0 0.00 0.00 0.00 63 1019.2
20260510093714 46 317 0.0 1.0 0.00 0.00 0.00 62 1019.3
20260510093003 46 0 0.0 0.0 0.00 0.00 0.00 61 1019.1
20260510092503 46 0 0.0 0.0 0.00 0.00 0.00 61 1019.0
20260510092212 46 0 0.0 0.0 0.00 0.00 0.00 62 1019.0
20260510091504 46 0 0.0 0.0 0.00 0.00 0.00 59 1018.9
20260510091003 46 0 0.0 0.0 0.00 0.00 0.00 61 1018.8
20260510090503 46 0 0.0 0.0 0.00 0.00 0.00 61 1018.7
20260510090003 46 0 0.0 0.0 0.00 0.00 0.00 61 1018.6
20260510085503 46 317 0.0 2.0 0.00 0.00 0.00 63 1018.6
20260510085003 46 317 0.0 2.0 0.00 0.00 0.00 62 1018.5
20260510084503 46 317 0.0 2.0 0.00 0.00 0.00 63 1018.6
20260510084003 46 0 0.0 0.0 0.00 0.00 0.00 61 1018.7
20260510083503 46 0 0.0 0.0 0.00 0.00 0.00 61 1018.6
20260510083003 47 0 0.0 0.0 0.00 0.00 0.00 58 1018.6
20260510082504 47 0 0.0 0.0 0.00 0.00 0.00 55 1018.6
20260510082003 47 0 0.0 0.0 0.00 0.00 0.00 54 1018.4
20260510081503 47 0 0.0 0.0 0.00 0.00 0.00 54 1018.5
20260510081003 48 0 0.0 0.0 0.00 0.00 0.00 56 1018.4
20260510080503 48 0 0.0 0.0 0.00 0.00 0.00 54 1018.4
20260510080214 48 0 0.0 0.0 0.00 0.00 0.00 54 1018.5
20260510075504 48 0 0.0 0.0 0.00 0.00 0.00 54 1018.6
20260510075214 49 0 0.0 0.0 0.00 0.00 0.00 55 1018.6
20260510074503 49 0 0.0 0.0 0.00 0.00 0.00 55 1018.4
20260510074003 49 0 0.0 0.0 0.00 0.00 0.00 51 1018.3
20260510073503 50 0 0.0 0.0 0.00 0.00 0.00 50 1018.2
20260510073003 50 0 0.0 0.0 0.00 0.00 0.00 49 1018.2
20260510072503 50 0 0.0 0.0 0.00 0.00 0.00 49 1018.2
20260510072003 50 0 0.0 0.0 0.00 0.00 0.00 49 1018.1
20260510071503 51 0 0.0 0.0 0.00 0.00 0.00 48 1018.1
20260510071214 51 0 0.0 0.0 0.00 0.00 0.00 48 1018.1
20260510070503 51 313 0.0 3.0 0.00 0.00 0.00 47 1018.0
20260510070003 52 313 0.0 3.0 0.00 0.00 0.00 47 1018.0
20260510065712 52 313 0.0 3.0 0.00 0.00 0.00 47 1018.0
20260510065004 52 309 0.0 4.0 0.00 0.00 0.00 46 1018.0
20260510064503 52 308 0.0 4.0 0.00 0.00 0.00 46 1018.0
20260510064003 53 296 0.0 1.0 0.00 0.00 0.00 45 1017.9
20260510063503 53 296 0.0 1.0 0.00 0.00 0.00 45 1017.8
20260510063003 53 296 0.0 2.0 0.00 0.00 0.00 44 1017.8
20260510062503 53 296 0.0 3.0 0.00 0.00 0.00 44 1017.7
20260510062004 54 296 0.0 3.0 0.00 0.00 0.00 44 1017.8
20260510061503 54 296 1.0 3.0 0.00 0.00 0.00 43 1017.9
20260510061003 54 296 1.0 3.0 0.00 0.00 0.00 44 1017.7
20260510060503 54 296 0.0 3.0 0.00 0.00 0.00 44 1017.8
20260510060003 54 295 1.0 3.0 0.00 0.00 0.00 43 1017.6
20260510055503 55 294 1.0 3.0 0.00 0.00 0.00 43 1017.3
20260510055003 55 311 1.0 4.0 0.00 0.00 0.00 44 1017.1
20260510054503 55 4 1.0 4.0 0.00 0.00 0.00 43 1017.1
20260510054003 55 24 1.0 3.0 0.00 0.00 0.00 43 1016.9
20260510053503 55 23 0.0 2.0 0.00 0.00 0.00 42 1016.7
20260510053003 56 22 0.0 3.0 0.00 0.00 0.00 42 1016.5
20260510052503 56 22 0.0 3.0 0.00 0.00 0.00 42 1016.3
20260510052003 56 24 0.0 3.0 0.00 0.00 0.00 42 1016.4
20260510051503 56 25 1.0 3.0 0.00 0.00 0.00 41 1016.1
20260510051003 57 27 1.0 3.0 0.00 0.00 0.00 41 1015.9
20260510050714 57 31 1.0 4.0 0.00 0.00 0.00 41 1016.0
20260510050004 57 32 1.0 4.0 0.00 0.00 0.00 40 1016.0
20260510045503 58 29 1.0 5.0 0.00 0.00 0.00 39 1015.9
20260510045003 58 30 1.0 5.0 0.00 0.00 0.00 40 1015.8
20260510044503 58 341 1.0 8.0 0.00 0.00 0.00 40 1015.7
20260510044003 58 354 1.0 8.0 0.00 0.00 0.00 39 1015.7
20260510043503 59 33 1.0 6.0 0.00 0.00 0.00 38 1015.6
20260510043004 59 27 1.0 4.0 0.00 0.00 0.00 38 1015.5
20260510042503 59 31 2.0 6.0 0.00 0.00 0.00 37 1015.4
20260510042003 59 22 2.0 7.0 0.00 0.00 0.00 38 1015.3
20260510041505 60 26 2.0 7.0 0.00 0.00 0.00 36 1015.2
20260510041003 60 34 3.0 9.0 0.00 0.00 0.00 36 1015.1
20260510040503 60 46 2.0 9.0 0.00 0.00 0.00 36 1015.0
20260510040003 60 49 3.0 12.0 0.00 0.00 0.00 39 1014.9
20260510035503 60 39 3.0 12.0 0.00 0.00 0.00 36 1014.9
20260510035003 60 37 3.0 8.0 0.00 0.00 0.00 38 1014.7
20260510034503 61 38 3.0 8.0 0.00 0.00 0.00 37 1014.7
20260510034003 61 42 3.0 8.0 0.00 0.00 0.00 39 1014.6
20260510033713 61 46 2.0 8.0 0.00 0.00 0.00 38 1014.5
20260510033003 61 40 1.0 6.0 0.00 0.00 0.00 39 1014.4
20260510032503 61 37 1.0 4.0 0.00 0.00 0.00 39 1014.3
20260510032214 61 37 0.0 4.0 0.00 0.00 0.00 38 1014.3
20260510031504 62 10 1.0 4.0 0.00 0.00 0.00 37 1014.2
20260510031003 62 8 1.0 4.0 0.00 0.00 0.00 38 1014.1
20260510030713 62 14 1.0 4.0 0.00 0.00 0.00 38 1014.0
20260510030004 62 32 1.0 3.0 0.00 0.00 0.00 37 1013.8
20260510025503 62 33 1.0 3.0 0.00 0.00 0.00 37 1013.8
20260510025003 63 38 1.0 3.0 0.00 0.00 0.00 37 1013.6
20260510024713 63 41 1.0 3.0 0.00 0.00 0.00 36 1013.5
20260510024003 63 44 1.0 5.0 0.00 0.00 0.00 36 1013.3
20260510023503 64 38 1.0 5.0 0.00 0.00 0.00 35 1013.2
20260510023003 64 11 1.0 6.0 0.00 0.00 0.00 35 1013.2
20260510022503 64 2 2.0 6.0 0.00 0.00 0.00 34 1013.0
20260510022003 64 28 2.0 6.0 0.00 0.00 0.00 35 1013.0
20260510021503 65 41 2.0 6.0 0.00 0.00 0.00 36 1012.8
20260510021214 65 41 2.0 6.0 0.00 0.00 0.00 34 1012.9
20260510020503 65 44 3.0 9.0 0.00 0.00 0.00 34 1012.7
20260510020004 66 43 3.0 10.0 0.00 0.00 0.00 34 1012.6
20260510015503 66 39 2.0 10.0 0.00 0.00 0.00 34 1012.5
20260510015003 66 27 2.0 10.0 0.00 0.00 0.00 36 1012.4
20260510014503 66 26 2.0 10.0 0.00 0.00 0.00 35 1012.2
20260510014003 67 41 3.0 11.0 0.00 0.00 0.00 34 1012.2
20260510013503 67 42 4.0 11.0 0.00 0.00 0.00 34 1012.1
20260510013004 67 44 3.0 8.0 0.00 0.00 0.00 34 1011.9
20260510012713 68 45 4.0 9.0 0.00 0.00 0.00 35 1011.9
20260510012003 68 42 4.0 13.0 0.00 0.00 0.00 36 1011.7
20260510011503 68 41 4.0 13.0 0.00 0.00 0.00 37 1011.7
20260510011003 68 41 3.0 9.0 0.00 0.00 0.00 38 1011.6
20260510010712 68 40 3.0 9.0 0.00 0.00 0.00 38 1011.4
20260510010003 68 37 3.0 10.0 0.00 0.00 0.00 40 1011.4
20260510005503 68 40 3.0 10.0 0.00 0.00 0.00 39 1011.3
20260510005003 68 38 3.0 9.0 0.00 0.00 0.00 39 1011.3
20260510004503 68 21 3.0 9.0 0.00 0.00 0.00 39 1011.2
20260510004003 68 25 2.0 8.0 0.00 0.00 0.00 40 1011.1
20260510003503 69 42 2.0 5.0 0.00 0.00 0.00 41 1011.1
20260510003004 69 51 2.0 8.0 0.00 0.00 0.00 41 1011.0
20260510002503 69 49 4.0 10.0 0.00 0.00 0.00 43 1011.0
20260510002003 69 30 3.0 10.0 0.00 0.00 0.00 42 1010.9
20260510001503 69 1 2.0 5.0 0.00 0.00 0.00 43 1010.9
20260510001004 69 36 2.0 9.0 0.00 0.00 0.00 43 1010.9
20260510000503 69 47 2.0 9.0 0.00 0.00 0.00 42 1010.9
20260510000004 69 51 2.0 8.0 0.00 0.00 0.00 42 1011.0
20260509235503 69 61 2.0 5.0 0.00 0.00 0.00 42 1010.8
20260509235003 70 31 2.0 8.0 0.00 0.00 0.00 43 1010.9
20260509234503 70 24 3.0 8.0 0.00 0.00 0.00 44 1010.9
20260509234003 70 27 3.0 10.0 0.00 0.00 0.00 44 1010.9
20260509233503 70 5 2.0 10.0 0.00 0.00 0.00 43 1010.9
20260509233003 70 345 1.0 4.0 0.00 0.00 0.00 45 1010.9
20260509232503 69 338 2.0 9.0 0.00 0.00 0.00 44 1010.8
20260509232003 69 337 2.0 9.0 0.00 0.00 0.00 43 1010.7
20260509231714 69 334 2.0 7.0 0.00 0.00 0.00 45 1010.7
20260509231003 70 6 2.0 9.0 0.00 0.00 0.00 44 1010.8
20260509230504 70 35 2.0 9.0 0.00 0.00 0.00 45 1010.7
20260509230212 70 11 2.0 8.0 0.00 0.00 0.00 46 1010.7
20260509225503 70 6 3.0 9.0 0.00 0.00 0.00 44 1010.7
20260509225213 70 15 4.0 11.0 0.00 0.00 0.00 44 1010.5
20260509224713 70 20 3.0 11.0 0.00 0.00 0.00 45 1010.6
20260509224212 70 22 3.0 6.0 0.00 0.00 0.00 44 1010.5
20260509223503 71 29 3.0 12.0 0.00 0.00 0.00 43 1010.5
20260509223003 71 13 2.0 12.0 0.00 0.00 0.00 43 1010.4
20260509222503 72 346 3.0 9.0 0.00 0.00 0.00 44 1010.4
20260509222212 72 359 3.0 9.0 0.00 0.00 0.00 45 1010.3
20260509221503 71 357 4.0 11.0 0.00 0.00 0.00 44 1010.2
20260509221003 71 352 3.0 11.0 0.00 0.00 0.00 43 1010.2
20260509220503 71 360 3.0 9.0 0.00 0.00 0.00 43 1010.1
20260509220003 71 18 4.0 11.0 0.00 0.00 0.00 43 1010.1
20260509215503 70 23 4.0 11.0 0.00 0.00 0.00 42 1010.1
20260509215003 71 30 3.0 10.0 0.00 0.00 0.00 42 1010.1
20260509214503 70 38 2.0 10.0 0.00 0.00 0.00 44 1010.0
20260509214003 70 35 3.0 10.0 0.00 0.00 0.00 42 1010.0
20260509213503 71 30 3.0 10.0 0.00 0.00 0.00 43 1010.0
20260509213003 71 9 2.0 6.0 0.00 0.00 0.00 40 1010.0
20260509212503 71 355 3.0 11.0 0.00 0.00 0.00 41 1009.9
20260509212214 71 347 3.0 11.0 0.00 0.00 0.00 39 1010.0
20260509211503 72 329 4.0 11.0 0.00 0.00 0.00 39 1009.8
20260509211003 72 328 3.0 10.0 0.00 0.00 0.00 41 1009.8
20260509210503 71 4 3.0 9.0 0.00 0.00 0.00 40 1009.7
20260509210004 71 4 4.0 13.0 0.00 0.00 0.00 39 1009.6
20260509205503 72 7 5.0 13.0 0.00 0.00 0.00 38 1009.7
20260509205214 72 12 5.0 13.0 0.00 0.00 0.00 37 1009.6
20260509204503 73 2 4.0 16.0 0.00 0.00 0.00 38 1009.4
20260509204214 73 4 4.0 16.0 0.00 0.00 0.00 38 1009.3
20260509203713 73 19 5.0 16.0 0.00 0.00 0.00 41 1009.2
20260509203004 74 32 5.0 13.0 0.00 0.00 0.00 36 1009.1
20260509202503 75 39 6.0 16.0 0.00 0.00 0.00 34 1008.9
20260509202003 76 39 6.0 16.0 0.00 0.00 0.00 37 1008.7
20260509201503 76 35 4.0 12.0 0.00 0.00 0.00 34 1008.7
20260509201003 76 31 5.0 16.0 0.00 0.00 0.00 34 1008.6
20260509200503 75 37 7.0 16.0 0.00 0.00 0.00 33 1008.4
20260509200003 76 39 7.0 16.0 0.00 0.00 0.00 31 1008.4
20260509195503 76 38 6.0 17.0 0.00 0.00 0.00 36 1008.4
20260509195003 76 39 4.0 17.0 0.00 0.00 0.00 29 1008.3
20260509194503 76 46 3.0 7.0 0.00 0.00 0.00 26 1008.2
20260509194003 76 61 3.0 12.0 0.00 0.00 0.00 27 1008.2
20260509193712 76 52 3.0 12.0 0.00 0.00 0.00 35 1008.1
20260509193003 76 8 3.0 9.0 0.00 0.00 0.00 29 1008.1
20260509192503 75 48 3.0 8.0 0.00 0.00 0.00 28 1008.1
20260509192213 75 46 3.0 8.0 0.00 0.00 0.00 28 1008.2